SHILOH Weather Reports


time (UTC)temp
C
wind
direction
speed
KPH
gust
KPH
rain 1hr
cm
rain 24hr
cm
rain mn
cm
humidity
%
barometer
mb
20260504050005 3 20 0.0 0.0 0.00 0.00 0.00 78 1014.3
20260504044506 3 20 0.0 0.0 0.00 0.00 0.00 81 1014.2
20260504043002 3 20 0.0 0.0 0.00 0.00 0.00 82 1014.3
20260504041600 4 20 0.0 1.6 0.00 0.00 0.00 82 1014.3
20260504040112 3 20 0.0 0.0 0.00 0.00 0.00 82 1014.1
20260504034607 4 20 0.0 0.0 0.00 0.00 0.00 81 1014.0
20260504033056 5 20 0.0 0.0 0.00 0.00 0.00 80 1014.0
20260504031555 5 20 0.0 0.0 0.00 0.00 0.00 80 1013.9
20260504030054 5 21 0.0 0.0 0.00 0.00 0.00 78 1013.7
20260504024558 5 20 0.0 1.6 0.00 0.00 0.00 78 1013.8
20260504023054 6 20 0.0 1.6 0.00 0.00 0.00 75 1013.6
20260504021553 6 20 0.0 1.6 0.00 0.00 0.00 75 1013.7
20260504020052 6 20 0.0 0.0 0.00 0.00 0.00 71 1013.7
20260504014553 7 20 0.0 0.0 0.00 0.00 0.00 69 1013.6
20260504013103 7 21 0.0 0.0 0.00 0.00 0.00 66 1013.5
20260504011551 8 20 0.0 0.0 0.00 0.00 0.00 63 1013.3
20260504010058 8 20 0.0 0.0 0.00 0.00 0.00 61 1013.2
20260504004605 10 20 0.0 0.0 0.00 0.00 0.00 55 1013.1
20260504003050 10 21 0.0 0.0 0.00 0.00 0.00 54 1013.0
20260504001549 11 21 0.0 0.0 0.00 0.00 0.00 49 1012.9
20260504000048 12 20 0.0 1.6 0.00 0.00 0.00 46 1012.7
20260503234549 13 22 0.0 3.2 0.00 0.00 0.00 42 1012.6
20260503233048 13 19 0.0 4.8 0.00 0.00 0.00 41 1012.4
20260503231549 14 111 0.0 3.2 0.00 0.00 0.00 40 1012.4
20260503230054 15 252 0.0 4.8 0.00 0.00 0.00 41 1012.3
20260503224546 16 335 0.0 6.4 0.00 0.00 0.00 36 1012.4
20260503223046 16 25 1.6 8.0 0.00 0.00 0.00 37 1012.3
20260503221545 16 25 4.8 12.9 0.00 0.00 0.00 39 1012.4
20260503220045 16 39 1.6 9.7 0.00 0.00 0.00 39 1012.5
20260503214547 16 172 0.0 8.0 0.00 0.00 0.00 38 1012.5
20260503213044 16 305 4.8 16.1 0.00 0.00 0.00 35 1012.5
20260503211542 16 288 3.2 6.4 0.00 0.00 0.00 35 1012.3
20260503210041 16 63 4.8 11.3 0.00 0.00 0.00 34 1012.4
20260503204540 16 34 6.4 12.9 0.00 0.00 0.00 37 1012.4
20260503203044 15 333 3.2 11.3 0.00 0.00 0.00 36 1012.5
20260503201543 15 328 4.8 14.5 0.00 0.00 0.00 38 1012.5
20260503200038 15 70 6.4 16.1 0.00 0.00 0.00 37 1012.7
20260503194536 15 27 8.0 19.3 0.00 0.00 0.00 38 1013.0
20260503193040 15 61 6.4 14.5 0.00 0.00 0.00 38 1013.1
20260503191539 15 27 3.2 16.1 0.00 0.00 0.00 37 1013.3
20260503190035 15 292 1.6 9.7 0.00 0.00 0.00 37 1013.5
20260503184534 15 56 3.2 16.1 0.00 0.00 0.00 36 1013.6
20260503183032 15 340 1.6 16.1 0.00 0.00 0.00 41 1013.9
20260503181529 14 47 1.6 12.9 0.00 0.00 0.00 37 1014.0
20260503180040 14 71 8.0 14.5 0.00 0.00 0.00 37 1014.0
20260503174527 13 64 6.4 20.9 0.00 0.00 0.00 40 1014.2
20260503173024 13 60 6.4 16.1 0.00 0.00 0.00 42 1014.0
20260503171526 13 41 4.8 14.5 0.00 0.00 0.00 43 1014.4
20260503081517 6 349 0.0 8.0 0.00 0.00 0.00 68 1012.8
20260503071510 6 54 3.2 9.7 0.00 0.00 0.00 70 1012.4